Temp
-15 -14 -14 -14 -14 -14 -14 -14 -14 -15 -15 -15 -15 -15 -15 -16 -16 -16 -16 -16 -16 -15 -15 -14 -15 -15 -14 -14 -14 -14 -14 -13 -13 -13 -13 -13 -13 -12 -12 -12 -12 -12
-14 -14 -14 -14 -14 -14 -14 -14 -14 -15 -15 -15 -15 -15 -16 -16 -16 -16 -16 -16 -16 -16 -16 -15 -15 -15 -15 -15 -15 -14 -14 -14 -14 -14 -13 -13 -13 -13 -13 -13 -12 -12
-14 -14 -14 -14 -14 -14 -14 -14 -14 -15 -15 -15 -15 -15 -15 -16 -16 -16 -16 -16 -16 -16 -16 -16 -16 -16 -16 -15 -15 -15 -14 -14 -14 -14 -14 -14 -14 -13 -13 -13 -13 -13
-15 -14 -14 -14 -14 -14 -14 -14 -15 -15 -15 -15 -15 -15 -15 -16 -16 -16 -16 -16 -16 -16 -16 -16 -16 -16 -16 -15 -15 -15 -15 -14 -14 -14 -14 -14 -14 -14 -13 -13 -13 -13
-15 -15 -14 -14 -14 -14 -14 -15 -15 -15 -15 -15 -15 -15 -15 -16 -16 -16 -16 -16 -16 -16 -16 -16 -16 -16 -16 -16 -15 -15 -15 -15 -14 -14 -14 -14 -14 -14 -13 -13 -13 -13
-15 -15 -15 -15 -15 -15 -15 -15 -15 -15 -15 -15 -15 -15 -16 -16 -16 -16 -16 -16 -16 -16 -16 -16 -16 -16 -16 -15 -15 -15 -15 -15 -15 -15 -14 -14 -14 -14 -14 -13 -13 -13
-16 -15 -15 -15 -15 -15 -15 -15 -15 -15 -15 -15 -15 -15 -16 -16 -16 -16 -16 -16 -16 -16 -16 -16 -16 -16 -16 -16 -15 -15 -15 -15 -15 -15 -15 -14 -14 -14 -14 -14 -13 -14
-16 -16 -16 -16 -16 -16 -16 -16 -16 -16 -16 -16 -16 -16 -16 -16 -16 -16 -16 -16 -16 -16 -16 -16 -16 -16 -16 -16 -15 -15 -15 -15 -15 -15 -15 -14 -14 -14 -14 -14 -14 -14
-17 -16 -16 -16 -16 -16 -16 -16 -16 -16 -16 -16 -16 -16 -16 -16 -16 -16 -16 -16 -16 -16 -16 -16 -16 -16 -16 -16 -16 -15 -15 -15 -15 -15 -15 -14 -14 -14 -14 -14 -14 -14
-17 -17 -17 -17 -17 -17 -17 -17 -17 -16 -16 -16 -16 -16 -16 -16 -16 -16 -16 -16 -16 -16 -16 -16 -16 -16 -16 -16 -15 -15 -15 -15 -15 -15 -15 -15 -15 -14 -14 -14 -14 -14
-17 -17 -17 -17 -17 -17 -17 -17 -17 -17 -17 -17 -17 -17 -17 -17 -17 -17 -17 -16 -16 -16 -16 -16 -16 -16 -16 -16 -16 -15 -15 -15 -15 -15 -15 -15 -15 -14 -14 -14 -14 -14
-17 -17 -17 -17 -17 -17 -17 -17 -17 -17 -17 -17 -17 -17 -17 -17 -17 -17 -17 -17 -16 -16 -16 -16 -16 -16 -16 -16 -16 -16 -15 -15 -15 -15 -15 -15 -15 -14 -14 -14 -14 -14
-17 -17 -17 -17 -17 -17 -17 -17 -17 -17 -17 -17 -17 -17 -17 -17 -17 -17 -17 -17 -16 -16 -16 -17 -17 -17 -16 -16 -16 -16 -16 -15 -15 -15 -15 -15 -15 -14 -14 -14 -14 -14
-17 -17 -17 -17 -17 -17 -17 -17 -17 -17 -17 -17 -17 -17 -17 -17 -17 -17 -17 -17 -17 -17 -17 -17 -17 -17 -17 -16 -16 -16 -16 -15 -15 -15 -15 -14 -14 -14 -14 -14 -14 -14
-17 -17 -17 -17 -17 -17 -17 -17 -17 -17 -17 -17 -17 -17 -17 -17 -17 -17 -17 -17 -17 -17 -17 -17 -17 -17 -17 -16 -16 -16 -16 -16 -16 -15 -15 -15 -15 -15 -14 -14 -14 -14
-17 -17 -17 -17 -17 -17 -17 -17 -17 -17 -17 -17 -17 -17 -17 -17 -17 -17 -17 -17 -17 -17 -17 -17 -17 -17 -17 -16 -16 -16 -16 -16 -16 -16 -16 -16 -15 -15 -15 -15 -14 -14
-17 -17 -17 -17 -17 -17 -17 -17 -17 -17 -17 -17 -17 -17 -17 -17 -17 -17 -17 -17 -17 -17 -17 -17 -17 -17 -16 -16 -16 -16 -16 -16 -16 -16 -16 -16 -16 -16 -16 -16 -16 -15
-17 -17 -17 -17 -17 -17 -17 -17 -17 -17 -17 -17 -17 -17 -17 -17 -17 -17 -17 -17 -17 -17 -17 -17 -17 -16 -16 -16 -16 -16 -16 -16 -16 -16 -17 -17 -17 -17 -17 -17 -17 -16
-17 -17 -17 -17 -17 -17 -17 -17 -17 -17 -17 -17 -17 -17 -17 -17 -17 -17 -17 -17 -17 -17 -17 -17 -17 -16 -16 -16 -16 -16 -16 -16 -17 -17 -17 -17 -17 -17 -17 -17 -17 -17
-17 -17 -17 -17 -17 -17 -17 -17 -17 -17 -17 -17 -17 -17 -17 -17 -17 -17 -17 -17 -17 -17 -17 -17 -17 -17 -17 -17 -17 -17 -17 -17 -17 -17 -17 -17 -17 -17 -17 -17 -17 -17
-17 -17 -17 -17 -17 -17 -17 -17 -17 -17 -17 -17 -17 -17 -17 -17 -17 -17 -17 -17 -17 -17 -17 -17 -17 -17 -17 -17 -17 -17 -17 -17 -17 -17 -17 -17 -17 -17 -17 -17 -17 -17
-17 -17 -17 -17 -17 -17 -18 -18 -17 -17 -17 -17 -17 -17 -17 -17 -17 -17 -17 -17 -17 -17 -17 -17 -17 -17 -17 -17 -17 -17 -17 -17 -17 -17 -17 -17 -17 -17 -17 -17 -17 -17
-17 -17 -17 -17 -17 -18 -18 -18 -18 -17 -17 -17 -17 -17 -17 -17 -17 -17 -17 -17 -17 -17 -17 -17 -17 -17 -17 -17 -17 -17 -17 -17 -17 -17 -17 -17 -17 -17 -17 -17 -17 -17
-17 -17 -17 -17 -17 -17 -18 -18 -18 -17 -17 -17 -17 -17 -17 -17 -17 -17 -17 -17 -17 -17 -17 -17 -17 -17 -17 -17 -17 -17 -17 -17 -17 -17 -17 -17 -17 -17 -17 -17 -17 -17
-17 -17 -17 -17 -17 -18 -18 -18 -17 -17 -17 -17 -17 -17 -17 -17 -17 -17 -17 -17 -17 -17 -17 -17 -17 -17 -17 -17 -17 -17 -17 -17 -17 -17 -17 -17 -17 -17 -17 -17 -17 -17
-17 -17 -17 -18 -17 -18 -17 -17 -17 -17 -17 -17 -17 -17 -17 -17 -17 -17 -17 -17 -17 -17 -17 -17 -17 -17 -17 -17 -17 -17 -17 -17 -17 -17 -17 -17 -17 -17 -17 -17 -17 -17
Height
5745 5745 5744 5743 5743 5742 5740 5738 5737 5736 5736 5736 5737 5738 5739 5740 5741 5741 5741 5740 5741 5741 5742 5742 5743 5745 5747 5750 5750 5751 5754 5756 5758 5761 5763 5764 5765 5766 5767 5767 5768 5768
5742 5742 5741 5741 5740 5739 5737 5736 5735 5734 5733 5734 5734 5735 5736 5737 5738 5738 5737 5737 5736 5736 5736 5737 5738 5739 5741 5742 5743 5746 5748 5750 5752 5755 5757 5759 5759 5760 5761 5762 5763 5763
5738 5738 5738 5738 5737 5736 5735 5734 5733 5732 5731 5731 5732 5733 5733 5734 5735 5735 5734 5734 5733 5732 5732 5733 5734 5736 5738 5740 5741 5742 5744 5746 5748 5750 5751 5752 5752 5753 5755 5756 5757 5758
5735 5735 5735 5735 5734 5733 5732 5731 5731 5730 5729 5729 5730 5730 5731 5731 5732 5732 5732 5730 5729 5729 5730 5731 5732 5733 5734 5737 5738 5739 5740 5742 5744 5746 5747 5748 5748 5749 5750 5751 5753 5754
5732 5731 5731 5731 5731 5730 5729 5728 5728 5728 5728 5728 5728 5728 5728 5728 5729 5728 5728 5727 5726 5726 5727 5728 5729 5730 5731 5733 5734 5735 5737 5738 5740 5741 5742 5744 5744 5745 5746 5747 5749 5750
5729 5728 5728 5728 5728 5727 5727 5726 5726 5726 5726 5726 5726 5726 5726 5726 5726 5725 5725 5725 5725 5725 5725 5725 5726 5727 5729 5730 5731 5732 5733 5735 5736 5737 5738 5739 5740 5740 5741 5743 5745 5745
5725 5725 5725 5725 5725 5725 5724 5724 5724 5724 5724 5724 5723 5723 5723 5723 5723 5723 5723 5723 5724 5724 5724 5724 5724 5725 5726 5726 5727 5728 5730 5731 5732 5733 5734 5735 5736 5736 5737 5738 5740 5741
5723 5723 5723 5722 5722 5722 5722 5722 5722 5722 5722 5722 5722 5722 5722 5722 5722 5721 5721 5722 5722 5722 5722 5723 5723 5723 5723 5723 5724 5725 5726 5727 5728 5729 5730 5732 5732 5732 5732 5734 5735 5737
5721 5721 5721 5720 5720 5720 5720 5720 5720 5720 5720 5720 5720 5720 5720 5721 5720 5720 5719 5720 5720 5720 5720 5721 5721 5721 5721 5721 5721 5721 5722 5723 5723 5724 5726 5727 5728 5728 5728 5729 5730 5732
5719 5719 5719 5719 5719 5719 5718 5718 5718 5718 5718 5718 5718 5718 5719 5718 5718 5718 5718 5718 5718 5718 5718 5718 5718 5719 5719 5718 5718 5718 5719 5719 5719 5720 5721 5722 5723 5723 5723 5724 5725 5727
5718 5718 5717 5717 5717 5717 5717 5717 5716 5716 5716 5716 5717 5717 5716 5716 5716 5716 5716 5716 5716 5716 5716 5716 5716 5716 5716 5716 5716 5716 5715 5716 5716 5716 5717 5718 5718 5719 5719 5720 5721 5722
5717 5716 5716 5716 5716 5715 5715 5715 5715 5715 5715 5714 5715 5715 5714 5714 5714 5714 5714 5713 5713 5713 5713 5713 5713 5713 5713 5713 5713 5713 5713 5712 5713 5713 5713 5714 5714 5715 5715 5715 5716 5717
5716 5716 5715 5715 5715 5714 5714 5714 5713 5713 5713 5712 5713 5713 5712 5712 5712 5712 5711 5711 5710 5710 5710 5710 5710 5710 5710 5710 5710 5710 5709 5709 5709 5709 5709 5710 5710 5710 5710 5710 5711 5712
5716 5715 5715 5714 5714 5713 5713 5712 5712 5711 5711 5711 5711 5711 5710 5710 5710 5710 5709 5708 5708 5708 5708 5708 5708 5708 5708 5708 5707 5707 5706 5706 5706 5705 5705 5705 5705 5705 5705 5705 5706 5708
5715 5714 5714 5713 5713 5712 5712 5711 5711 5710 5710 5710 5709 5709 5709 5708 5708 5708 5707 5707 5707 5707 5707 5707 5706 5706 5706 5705 5705 5704 5704 5703 5702 5701 5701 5700 5700 5700 5700 5701 5702 5703
5714 5714 5713 5713 5712 5712 5711 5710 5710 5709 5709 5709 5708 5708 5707 5707 5707 5707 5706 5706 5706 5706 5705 5705 5705 5704 5704 5703 5703 5702 5702 5701 5700 5699 5698 5697 5696 5695 5695 5695 5697 5698
5713 5713 5712 5712 5711 5711 5710 5710 5709 5709 5708 5708 5707 5707 5706 5706 5706 5706 5705 5705 5704 5704 5704 5703 5703 5703 5702 5702 5701 5700 5700 5699 5698 5697 5696 5695 5693 5693 5692 5691 5691 5693
5712 5711 5711 5711 5710 5710 5709 5709 5709 5708 5708 5707 5707 5706 5706 5705 5705 5705 5704 5703 5703 5703 5702 5702 5702 5701 5700 5700 5699 5698 5698 5697 5696 5695 5694 5693 5692 5691 5689 5688 5687 5688
5710 5710 5710 5709 5709 5709 5708 5708 5708 5707 5707 5706 5706 5705 5705 5704 5704 5703 5703 5702 5702 5701 5701 5700 5700 5699 5699 5698 5697 5696 5696 5695 5694 5693 5692 5691 5690 5689 5688 5686 5685 5685
5708 5708 5708 5708 5708 5707 5707 5707 5706 5706 5705 5705 5705 5704 5703 5703 5702 5702 5702 5701 5701 5700 5700 5699 5698 5698 5697 5696 5696 5695 5694 5693 5692 5691 5690 5689 5688 5688 5686 5685 5683 5683
5706 5706 5706 5706 5706 5706 5705 5705 5705 5704 5704 5704 5703 5702 5702 5701 5701 5701 5700 5700 5699 5699 5698 5698 5697 5696 5696 5695 5694 5693 5692 5691 5691 5690 5689 5688 5687 5686 5684 5683 5682 5681
5704 5704 5704 5704 5704 5704 5704 5703 5703 5703 5702 5702 5702 5701 5701 5700 5700 5699 5699 5698 5698 5697 5696 5696 5695 5695 5694 5693 5692 5692 5691 5690 5689 5688 5687 5686 5685 5684 5682 5681 5681 5679
5702 5702 5702 5702 5702 5702 5702 5701 5701 5701 5701 5700 5700 5700 5699 5699 5699 5698 5698 5697 5696 5696 5695 5694 5693 5693 5692 5691 5690 5690 5689 5688 5687 5686 5685 5684 5683 5682 5680 5679 5677 5677
5700 5700 5700 5700 5700 5700 5700 5700 5700 5699 5699 5699 5699 5698 5698 5698 5697 5697 5696 5696 5695 5694 5693 5693 5692 5691 5690 5689 5688 5687 5686 5685 5684 5683 5682 5681 5680 5679 5678 5676 5674 5673
5698 5698 5698 5698 5698 5698 5698 5698 5698 5698 5698 5698 5697 5697 5697 5696 5696 5695 5695 5694 5693 5693 5692 5691 5690 5689 5688 5687 5686 5685 5684 5683 5682 5680 5679 5678 5676 5675 5674 5673 5671 5669
5696 5696 5696 5696 5696 5697 5697 5697 5697 5697 5696 5696 5696 5696 5695 5695 5694 5694 5693 5692 5692 5691 5690 5689 5688 5687 5686 5685 5684 5683 5681 5680 5679 5677 5676 5674 5673 5671 5670 5668 5667 5665
Wind_Speed
34 34 35 36 36 34 31 28 26 26 26 24 23 24 27 28 28 28 30 31 31 32 35 37 34 33 34 34 37 37 37 39 39 38 37 37 37 38 38 38 38 38
35 35 35 35 35 32 28 26 24 24 24 22 22 23 24 24 23 24 27 30 32 31 32 36 36 33 31 33 35 34 35 36 34 34 34 34 36 37 37 37 38 38
33 33 33 34 33 29 25 23 22 23 23 22 22 22 22 22 22 22 23 26 30 31 30 32 35 34 32 32 32 33 36 37 34 32 31 30 33 35 35 36 37 38
28 29 30 30 29 26 23 21 20 21 22 22 21 22 22 22 22 21 21 22 26 28 28 30 32 33 33 33 33 33 35 37 36 35 34 34 35 35 35 35 35 37
24 25 25 25 25 24 22 21 20 19 20 20 20 21 21 22 22 21 20 20 23 25 24 26 29 31 32 32 33 33 34 36 36 36 36 36 38 38 37 34 31 33
20 20 20 21 21 21 20 20 19 19 18 19 19 19 19 19 19 19 18 17 19 21 21 22 25 28 30 31 31 32 34 35 35 35 34 34 38 40 39 36 32 32
16 16 17 17 18 18 18 18 17 18 18 18 17 17 17 16 16 16 16 15 16 18 18 19 21 23 26 29 30 31 33 35 35 36 35 34 37 41 41 40 38 36
12 12 13 14 14 15 15 16 16 16 17 17 17 17 16 16 15 16 16 16 16 16 16 16 18 20 22 24 27 29 31 33 34 35 36 35 37 40 42 41 42 41
9 10 11 11 12 13 14 15 15 16 16 17 17 18 17 16 16 17 17 17 17 17 17 18 18 19 20 21 23 25 27 30 32 33 34 35 35 37 39 40 41 42
9 9 10 11 12 13 14 15 16 16 17 17 17 18 18 18 18 19 19 19 19 19 19 20 20 20 20 21 22 23 25 27 29 31 32 34 35 36 38 39 40 41
10 9 9 10 11 13 14 16 17 17 18 18 18 18 19 19 19 20 20 20 20 20 19 19 20 20 20 21 21 23 24 25 27 29 31 33 34 36 38 39 40 40
11 10 10 10 10 11 12 14 15 16 17 18 18 17 18 18 18 19 19 20 20 20 19 19 19 19 19 20 21 22 24 26 27 29 30 31 33 34 37 38 39 41
10 10 10 10 10 10 11 11 12 13 14 15 15 15 15 16 17 17 18 18 19 18 18 18 18 18 18 19 20 21 23 25 27 30 31 32 33 34 36 38 39 40
10 10 10 10 10 10 10 11 11 12 12 13 13 13 14 15 15 15 16 16 16 15 16 16 16 17 16 17 17 18 20 23 25 28 30 32 34 35 36 38 39 40
10 10 10 10 10 10 10 10 11 11 12 12 12 12 13 13 13 13 14 14 13 13 13 14 14 14 14 15 15 15 16 18 20 22 25 29 32 34 36 38 39 41
10 10 10 9 9 9 9 9 10 10 10 10 10 10 11 11 11 11 12 12 12 12 12 12 12 12 13 13 13 14 14 15 16 18 20 22 26 29 31 33 37 39
10 10 10 9 9 9 9 9 9 9 9 9 9 8 8 8 8 8 8 9 9 9 9 9 10 10 11 11 12 13 14 14 15 16 17 18 20 22 25 27 30 33
11 11 10 10 9 9 8 8 8 8 8 8 8 8 7 7 7 6 6 7 7 7 7 8 8 9 10 11 12 13 14 15 16 17 18 18 19 20 22 24 25 26
12 12 11 10 10 9 9 8 8 8 8 8 8 8 7 7 7 6 6 7 7 7 7 8 8 9 10 11 12 13 14 15 16 17 18 19 20 21 22 24 25 24
13 12 11 10 10 9 9 9 8 8 8 8 8 8 8 7 7 7 6 6 7 7 7 8 9 9 10 11 12 13 14 15 16 17 18 19 20 21 22 24 26 26
13 12 11 10 9 9 9 9 9 9 8 8 8 7 7 7 6 6 6 6 6 7 7 8 9 10 10 11 12 13 14 15 16 18 19 20 21 22 23 25 26 28
12 11 10 10 9 9 9 9 8 8 8 7 7 6 6 5 5 5 6 6 7 8 9 9 10 10 11 12 13 14 15 16 17 19 20 21 22 23 24 26 27 28
11 11 10 9 8 8 8 8 8 7 7 6 6 5 5 5 5 6 6 7 8 9 10 10 11 12 12 13 14 15 16 17 18 19 20 22 23 24 26 28 29 30
10 10 9 8 8 8 8 7 7 7 6 5 5 4 4 5 6 6 7 7 8 9 10 12 12 13 14 14 15 15 16 17 19 21 23 24 26 27 29 30 32 33
9 9 8 8 8 7 7 7 6 6 5 5 4 4 4 5 6 7 8 8 9 10 11 12 13 13 14 15 15 16 18 20 21 24 26 27 29 31 32 33 35 36
8 8 7 7 7 6 6 6 6 6 5 4 4 5 5 6 7 8 9 10 11 11 12 12 13 13 14 16 17 18 20 23 24 26 28 29 31 33 35 36 37 38
Wind_Direction
283 284 285 288 291 292 291 290 288 284 281 278 271 264 260 261 263 261 256 250 249 249 243 240 241 243 243 243 245 248 249 250 252 254 254 257 258 258 260 262 263 265
281 281 283 285 287 289 288 288 287 284 282 279 274 269 265 263 264 264 261 257 254 251 244 241 240 241 241 241 242 244 244 245 249 251 252 256 258 256 256 258 259 261
279 278 279 281 283 284 284 285 284 283 283 281 277 273 271 270 269 269 268 263 257 253 251 247 242 241 242 242 243 244 242 243 245 248 249 252 255 254 254 256 257 258
275 274 274 277 280 282 282 281 279 279 280 281 281 278 278 278 275 272 270 267 259 255 259 256 248 245 244 244 246 247 244 243 245 248 249 251 255 255 255 257 259 260
269 269 271 274 278 280 279 277 276 276 277 279 281 282 283 283 279 275 271 267 262 259 260 259 254 251 248 246 248 248 247 246 246 249 250 251 252 253 252 255 259 260
267 267 269 272 275 275 273 273 273 274 275 277 278 280 282 285 284 281 276 270 269 268 264 259 257 254 252 251 250 249 248 248 248 250 253 253 251 251 251 251 253 257
268 268 269 270 272 271 269 268 269 271 273 275 276 277 278 281 283 285 284 279 278 279 274 267 263 259 256 254 254 253 253 253 252 252 255 256 254 254 254 252 253 257
275 272 272 273 274 274 271 270 269 269 271 272 274 276 277 279 281 283 285 285 284 284 281 276 271 267 263 260 258 257 257 257 257 256 257 258 258 258 258 257 256 257
288 281 278 278 279 280 280 278 277 275 274 274 275 277 279 280 280 280 282 283 284 285 284 281 277 272 269 267 265 262 260 260 261 260 260 259 260 262 262 260 259 257
308 297 288 283 281 282 282 282 282 281 280 279 279 281 282 282 282 283 284 285 284 284 283 282 279 276 272 270 268 267 265 264 264 264 262 260 260 262 264 263 262 261
321 313 304 296 289 285 282 281 281 281 281 281 282 283 283 283 284 286 286 286 285 284 282 280 279 277 275 273 272 271 270 269 268 267 265 263 262 262 263 264 264 262
322 318 314 309 303 297 292 288 285 283 282 282 282 283 283 284 285 287 287 286 286 285 283 280 278 277 277 276 275 274 274 273 273 272 270 268 266 264 264 265 265 264
325 321 319 315 312 309 306 303 299 296 293 290 288 287 286 287 288 289 289 287 285 285 284 283 282 280 279 279 278 276 275 274 274 274 273 271 270 267 266 266 267 266
329 326 325 323 321 319 316 314 312 309 307 303 298 293 289 287 288 289 289 288 287 285 283 282 281 280 280 281 284 285 283 280 277 275 274 272 271 269 267 267 268 268
325 325 325 325 326 326 325 323 321 318 314 310 304 299 292 288 286 286 287 286 286 285 284 282 281 282 283 286 289 295 297 296 292 287 282 278 275 273 270 267 266 267
317 318 319 321 322 322 323 324 324 323 320 315 310 303 297 293 289 286 285 284 284 284 284 285 285 287 290 294 299 304 309 312 313 310 304 297 291 286 282 276 270 267
308 308 310 313 315 315 317 318 321 322 321 320 317 312 308 304 298 294 292 290 289 289 290 293 297 300 303 308 313 318 323 327 330 330 329 325 317 310 305 298 287 276
300 299 300 303 305 308 311 311 312 314 314 313 312 312 312 311 308 306 304 303 303 305 308 310 313 317 320 324 327 329 332 335 337 339 339 338 337 335 329 323 314 300
295 294 293 293 294 296 299 301 303 304 303 303 302 302 304 305 306 307 307 308 310 313 317 320 322 325 328 330 332 334 336 337 338 339 340 339 340 342 338 333 331 327
291 290 289 289 290 289 288 289 292 294 295 295 295 295 297 298 300 303 306 308 313 317 322 326 329 331 333 334 335 336 337 337 338 338 339 339 340 340 338 334 334 333
288 288 288 288 287 286 284 283 284 287 290 291 291 292 294 297 301 307 314 320 325 329 331 333 334 334 334 335 336 336 336 337 337 337 337 337 338 338 336 334 332 331
287 286 286 286 286 284 281 279 280 283 285 288 290 293 297 305 314 323 330 334 334 334 334 334 334 334 334 335 335 335 336 336 336 337 337 337 338 338 336 335 334 332
287 286 284 283 283 281 278 277 277 279 282 286 291 298 306 316 325 330 332 333 332 332 332 331 332 332 332 334 335 335 335 336 336 336 336 336 336 336 335 334 333 332
287 285 283 282 279 276 274 274 273 275 281 287 292 301 311 318 323 326 327 328 327 327 328 327 328 329 329 331 332 333 333 333 333 333 333 332 332 332 332 330 329 328
285 281 279 276 273 271 269 268 271 275 278 282 288 298 308 313 317 319 320 322 323 324 325 325 325 325 326 327 328 328 328 329 330 329 329 330 330 330 330 328 327 325
278 274 272 269 265 262 262 264 267 268 269 275 286 295 301 305 308 312 316 319 321 321 321 321 321 321 322 322 322 324 325 326 327 327 328 329 329 330 330 328 326 324